EW1566 Weather Reports


time (UTC)temp
C
wind
direction
speed
KPH
gust
KPH
rain 1hr
cm
rain 24hr
cm
rain mn
cm
humidity
%
barometer
mb
20260504191104 28 16 11.3 20.9 0.00 0.00 0.00 11 1000.6
20260504190604 27 303 19.3 24.1 0.00 0.00 0.00 10 1000.7
20260504190105 27 334 16.1 32.2 0.00 0.00 0.00 10 1000.8
20260504185604 27 323 12.9 19.3 0.00 0.00 0.00 10 1000.8
20260504185103 27 352 17.7 32.2 0.00 0.00 0.00 9 1000.9
20260504184603 27 12 16.1 32.2 0.00 0.00 0.00 10 1000.9
20260504184104 27 337 14.5 24.1 0.00 0.00 0.00 9 1001.0
20260504183605 27 357 9.7 19.3 0.00 0.00 0.00 9 1001.0
20260504183104 27 319 17.7 25.7 0.00 0.00 0.00 9 1001.1
20260504182604 27 337 16.1 27.4 0.00 0.00 0.00 9 1001.2
20260504182104 27 357 19.3 27.4 0.00 0.00 0.00 9 1001.2
20260504181604 27 358 16.1 32.2 0.00 0.00 0.00 10 1001.2
20260504181104 27 323 11.3 29.0 0.00 0.00 0.00 10 1001.2
20260504180605 27 342 14.5 22.5 0.00 0.00 0.00 9 1001.3
20260504180105 27 353 19.3 27.4 0.00 0.00 0.00 10 1001.3
20260504175605 27 9 14.5 27.4 0.00 0.00 0.00 11 1001.3
20260504175105 26 336 11.3 25.7 0.00 0.00 0.00 11 1001.3
20260504174604 26 353 16.1 22.5 0.00 0.00 0.00 11 1001.4
20260504174104 26 296 12.9 22.5 0.00 0.00 0.00 10 1001.5
20260504173105 26 307 16.1 29.0 0.00 0.00 0.00 10 1001.6
20260504172604 26 322 11.3 27.4 0.00 0.00 0.00 11 1001.7
20260504172103 26 332 11.3 25.7 0.00 0.00 0.00 11 1001.6
20260504171603 26 335 14.5 24.1 0.00 0.00 0.00 10 1001.6
20260504171106 26 5 19.3 27.4 0.00 0.00 0.00 11 1001.7
20260504170105 26 331 11.3 22.5 0.00 0.00 0.00 13 1001.8
20260504160105 23 311 11.3 19.3 0.00 0.00 0.00 24 1002.0
20260504151103 20 281 11.3 20.9 0.00 0.00 0.00 29 1002.4
20260504150603 20 281 16.1 20.9 0.00 0.00 0.00 28 1002.4
20260504150105 20 270 12.9 19.3 0.00 0.00 0.00 28 1002.4
20260504141103 17 321 14.5 20.9 0.00 0.00 0.00 35 1002.7
20260504140603 16 302 12.9 20.9 0.00 0.00 0.00 36 1002.7
20260504140105 16 309 14.5 20.9 0.00 0.00 0.00 36 1002.7
20260504130604 12 311 9.7 19.3 0.00 0.00 0.00 48 1002.4
20260504120105 9 289 4.8 4.8 0.00 0.00 0.00 52 1001.8
20260504110604 10 315 4.8 8.0 0.00 0.00 0.00 48 1001.5
20260504100604 12 143 0.0 0.0 0.00 0.00 0.00 40 1001.6
20260504100105 12 144 0.0 0.0 0.00 0.00 0.00 40 1001.6
20260504090106 12 148 1.6 4.8 0.00 0.00 0.00 41 1001.6
20260504081604 12 142 1.6 4.8 0.00 0.00 0.00 42 1002.2
20260504081104 12 187 1.6 4.8 0.00 0.00 0.00 41 1002.3
20260504080603 12 161 3.2 4.8 0.00 0.00 0.00 41 1002.3
20260504080104 12 169 3.2 4.8 0.00 0.00 0.00 40 1002.5
20260504070104 12 147 1.6 4.8 0.00 0.00 0.00 38 1003.8
20260504050604 15 125 3.2 4.8 0.00 0.00 0.00 32 1005.3
20260504050106 15 134 3.2 9.7 0.00 0.00 0.00 32 1005.4
20260504045604 15 132 4.8 8.0 0.00 0.00 0.00 32 1005.5
20260504045104 15 118 4.8 9.7 0.00 0.00 0.00 32 1005.5
20260504044604 15 125 8.0 11.3 0.00 0.00 0.00 32 1005.6
20260504044104 15 130 6.4 9.7 0.00 0.00 0.00 31 1005.6
20260504043604 15 111 8.0 12.9 0.00 0.00 0.00 31 1005.6
20260504043103 15 124 8.0 11.3 0.00 0.00 0.00 31 1005.7
20260504041604 15 94 9.7 12.9 0.00 0.00 0.00 31 1005.8
20260504041104 15 107 9.7 12.9 0.00 0.00 0.00 31 1005.8
20260504040604 15 111 6.4 8.0 0.00 0.00 0.00 31 1005.8
20260504040105 15 101 9.7 12.9 0.00 0.00 0.00 31 1005.9
20260504035604 15 103 9.7 11.3 0.00 0.00 0.00 31 1006.0
20260504035104 15 96 9.7 12.9 0.00 0.00 0.00 30 1006.1
20260504034603 16 89 11.3 14.5 0.00 0.00 0.00 30 1006.1
20260504034103 16 91 11.3 14.5 0.00 0.00 0.00 30 1006.2
20260504033105 16 82 12.9 16.1 0.00 0.00 0.00 30 1006.3
20260504032604 16 73 12.9 19.3 0.00 0.00 0.00 30 1006.3
20260504032105 16 66 14.5 19.3 0.00 0.00 0.00 30 1006.4
20260504031604 16 64 14.5 19.3 0.00 0.00 0.00 30 1006.5
20260504030604 17 73 12.9 16.1 0.00 0.00 0.00 30 1006.5
20260504030105 17 65 12.9 16.1 0.00 0.00 0.00 30 1006.6
20260504025604 17 60 12.9 16.1 0.00 0.00 0.00 29 1006.6
20260504023604 17 50 11.3 12.9 0.00 0.00 0.00 29 1006.4
20260504023105 18 59 12.9 16.1 0.00 0.00 0.00 27 1006.4
20260504022604 18 67 11.3 14.5 0.00 0.00 0.00 28 1006.3
20260504022104 18 67 12.9 14.5 0.00 0.00 0.00 27 1006.2
20260504021605 18 63 12.9 14.5 0.00 0.00 0.00 27 1006.3
20260504021105 18 64 12.9 14.5 0.00 0.00 0.00 27 1006.3
20260504020604 18 66 11.3 14.5 0.00 0.00 0.00 27 1006.2
20260504020104 18 66 12.9 14.5 0.00 0.00 0.00 26 1006.2
20260504015603 19 66 11.3 14.5 0.00 0.00 0.00 26 1006.1
20260504015105 19 65 12.9 14.5 0.00 0.00 0.00 26 1006.1
20260504014604 19 65 12.9 14.5 0.00 0.00 0.00 26 1006.1
20260504013605 20 69 12.9 14.5 0.00 0.00 0.00 26 1006.1
20260504013104 20 58 11.3 12.9 0.00 0.00 0.00 26 1006.1
20260504012604 20 58 9.7 11.3 0.00 0.00 0.00 26 1006.2
20260504011604 20 48 9.7 11.3 0.00 0.00 0.00 26 1006.2
20260504011105 20 52 9.7 12.9 0.00 0.00 0.00 25 1006.3
20260504010604 21 59 11.3 12.9 0.00 0.00 0.00 25 1006.3
20260504010105 21 45 9.7 12.9 0.00 0.00 0.00 25 1006.3
20260504005604 21 29 11.3 14.5 0.00 0.00 0.00 24 1006.4
20260504004604 21 39 11.3 16.1 0.00 0.00 0.00 23 1006.4
20260504004104 22 31 11.3 14.5 0.00 0.00 0.00 24 1006.5
20260504003604 22 42 11.3 14.5 0.00 0.00 0.00 23 1006.5
20260504002603 22 27 11.3 19.3 0.00 0.00 0.00 22 1006.5
20260504002108 22 31 14.5 19.3 0.00 0.00 0.00 20 1006.6
20260504001604 22 28 9.7 14.5 0.00 0.00 0.00 21 1006.6
20260504001104 22 35 9.7 12.9 0.00 0.00 0.00 21 1006.6
20260504000604 23 33 9.7 14.5 0.00 0.00 0.00 20 1006.6
20260504000105 23 20 11.3 12.9 0.00 0.00 0.00 18 1006.7
20260503235104 23 29 11.3 16.1 0.00 0.00 0.00 19 1006.7
20260503234103 23 22 8.0 12.9 0.00 0.00 0.00 20 1006.8
20260503233604 23 45 12.9 19.3 0.00 0.00 0.00 18 1006.8
20260503233105 23 48 14.5 19.3 0.00 0.00 0.00 19 1006.9
20260503232604 23 32 11.3 14.5 0.00 0.00 0.00 18 1006.9
20260503232104 23 29 11.3 14.5 0.00 0.00 0.00 19 1006.9
20260503231604 24 31 9.7 19.3 0.00 0.00 0.00 17 1007.0
20260503230105 24 45 12.9 16.1 0.00 0.00 0.00 16 1007.1
20260503225603 25 38 9.7 12.9 0.00 0.00 0.00 16 1007.1
20260503225103 25 356 9.7 14.5 0.00 0.00 0.00 14 1007.1
20260503224604 25 344 9.7 19.3 0.00 0.00 0.00 15 1007.2
20260503224104 25 342 9.7 19.3 0.00 0.00 0.00 15 1007.3
20260503223604 25 342 9.7 16.1 0.00 0.00 0.00 15 1007.4
20260503222604 24 8 9.7 12.9 0.00 0.00 0.00 15 1007.4
20260503222105 25 25 9.7 19.3 0.00 0.00 0.00 15 1007.4
20260503221603 25 49 11.3 19.3 0.00 0.00 0.00 15 1007.5
20260503221104 25 54 11.3 19.3 0.00 0.00 0.00 16 1007.6
20260503215604 26 278 4.8 4.8 0.00 0.00 0.00 12 1007.8
20260503215103 26 343 4.8 8.0 0.00 0.00 0.00 12 1007.9
20260503214604 26 262 1.6 9.7 0.00 0.00 0.00 13 1008.0
20260503214104 26 248 3.2 8.0 0.00 0.00 0.00 13 1008.1
20260503213604 26 241 1.6 4.8 0.00 0.00 0.00 14 1008.1
20260503213104 25 342 3.2 11.3 0.00 0.00 0.00 12 1008.1
20260503212604 25 290 3.2 12.9 0.00 0.00 0.00 13 1008.1
20260503212104 25 278 9.7 16.1 0.00 0.00 0.00 13 1008.2
20260503211604 25 339 4.8 12.9 0.00 0.00 0.00 13 1008.3
20260503211104 25 353 6.4 11.3 0.00 0.00 0.00 14 1008.3
20260503210605 25 305 11.3 14.5 0.00 0.00 0.00 14 1008.4
20260503205604 25 36 3.2 11.3 0.00 0.00 0.00 14 1008.6
20260503205104 25 26 8.0 12.9 0.00 0.00 0.00 14 1008.7
20260503204604 25 77 12.9 19.3 0.00 0.00 0.00 13 1008.7
20260503204105 25 58 8.0 19.3 0.00 0.00 0.00 16 1008.8
20260503203603 25 190 4.8 8.0 0.00 0.00 0.00 15 1008.9
20260503203105 24 34 3.2 9.7 0.00 0.00 0.00 14 1009.1
20260503202604 24 70 8.0 14.5 0.00 0.00 0.00 15 1009.2
20260503202104 24 70 8.0 16.1 0.00 0.00 0.00 15 1009.3
20260503201606 24 74 4.8 14.5 0.00 0.00 0.00 17 1009.4
20260503201104 23 30 6.4 14.5 0.00 0.00 0.00 15 1009.6
20260503200605 23 66 9.7 19.3 0.00 0.00 0.00 15 1009.6
20260503200104 23 356 9.7 24.1 0.00 0.00 0.00 17 1009.7
20260503195604 23 66 9.7 20.9 0.00 0.00 0.00 17 1009.7
20260503195104 23 13 8.0 19.3 0.00 0.00 0.00 18 1009.7
20260503194604 23 41 9.7 19.3 0.00 0.00 0.00 18 1009.7
20260503194104 23 347 9.7 19.3 0.00 0.00 0.00 16 1009.9
20260503193605 23 347 11.3 20.9 0.00 0.00 0.00 16 1009.9
20260503192604 23 61 11.3 16.1 0.00 0.00 0.00 17 1010.0